sat.trackr.live / text

‹ back to catalog

STARLINK-36972

NORAD 68072 · 2026-042D

PAYLOAD ACTIVE UNKNOWN

§ Identity

Operator
Country
US
Launch date
2026-03-04
Launch site
AFETR
Launch vehicle
Mass (kg)
RCS (m²)

Purposes: comms

External: N2YO · Heavens-Above · Gunter

§ Orbital elements

Epoch: 2026-09-19T23:35:19.591296Z

Period
93.85 min
Inclination
53.1620°
Eccentricity
0.0000973
Mean motion
15.34409667 rev/d
Perigee alt
462.0 km
Apogee alt
463.3 km
Semi-major
6,840.8 km
B*
6.1205e-4
RAAN
351.8932°
Arg perigee
93.7953°
Mean anomaly
266.3161°
Rev number
3,211

§ Raw data

STARLINK-369721 68072U 26042D   26262.98286564  .00020365  00000+0  61205-3 0  99952 68072  53.1620 351.8932 0000973  93.7953 266.3161 15.34409667 32115

JSON: /api/v1/satellites/68072 · /tle

For live sub-satellite position, see the globe view (requires WebGL).

§ Visibility from observer

Set your observer location to see the next 7 days of passes ≥ 10°. The values pass through the URL so the page stays shareable.

No JS? Fill the form by hand. The geolocation button needs JavaScript.